This demonstration page uses our WeatherBlox Daily Observations layout. Learn more.

Left ArrowRight Arrow

Hourly Observations for December 26, 2021

Temp ( °F °C ) Dew Point ( °F °C ) Humidity (%) Winds ( mph kmh ) Pressure ( in mb ) Visibility ( mi km ) Precip ( " mm )
12:51 am 00:51 Cloudy 51 10.6 50 10 96 96 NW 7 11 29.87 1012 10 16 0.00 0.00
1:51 am 01:51 Cloudy 51 10.6 50 10 96 96 Calm 29.87 1012 10 16 0.00 0.00
2:51 am 02:51 Cloudy 50 10 49 9.4 96 96 ESE 5 7 29.88 1012 10 16 0.00 0.00
3:51 am 03:51 Cloudy 51 10.6 49 9.4 92 92 ENE 5 7 29.87 1012 10 16 0.00 0.00
4:51 am 04:51 Mostly Cloudy 50 10 49 9.4 96 96 SW 3 6 29.90 1012 10 16 0.00 0.00
5:51 am 05:51 Cloudy 51 10.6 46 7.8 83 83 W 5 7 29.88 1012 10 16 0.00 0.00
6:51 am 06:51 Partly Cloudy 50 10 46 7.8 86 86 S 3 6 29.91 1013 10 16 0.00 0.00
7:51 am 07:51 Mostly Cloudy 49 9.4 47 8.3 93 93 NNE 13 20 29.91 1013 10 16 0.00 0.00
8:51 am 08:51 Sunny 53 11.7 46 7.8 77 77 ENE 5 7 29.91 1013 10 16 0.00 0.00
9:51 am 09:51 Sunny 55 12.8 44 6.7 67 67 WNW 17 28 29.95 1014 10 16 0.00 0.00
10:51 am 10:51 Sunny 57 13.9 40 4.4 53 53 NW 22 35 29.94 1014 10 16 0.00 0.00
11:51 am 11:51 Sunny 60 15.6 40 4.4 47 47 NW 18 30 29.92 1013 10 16 0.00 0.00
12:51 pm 12:51 Sunny 61 16.1 39 3.9 44 44 WNW 17 28 29.91 1013 10 16 0.00 0.00
1:51 pm 13:51 Sunny 61 16.1 38 3.3 43 43 NW 21 33 29.89 1012 10 16 0.00 0.00
2:51 pm 14:51 Sunny 61 16.1 36 2.2 39 39 NW 14 22 29.89 1012 10 16 0.00 0.00
3:51 pm 15:51 Sunny 60 15.6 36 2.2 41 41 WNW 9 15 29.86 1011 10 16 0.00 0.00
4:51 pm 16:51 Sunny 59 15 37 2.8 44 44 WNW 8 13 29.86 1011 10 16 0.00 0.00
5:51 pm 17:51 Clear 53 11.7 40 4.4 61 61 W 9 15 29.88 1012 10 16 0.00 0.00
6:51 pm 18:51 Clear 48 8.9 40 4.4 74 74 WNW 5 7 29.90 1013 10 16 0.00 0.00
7:51 pm 19:51 Clear 44 6.7 40 4.4 85 85 NW 6 9 29.92 1013 10 16 0.00 0.00
8:51 pm 20:51 Clear 42 5.6 39 3.9 89 89 N 3 6 29.93 1014 10 16 0.00 0.00
9:51 pm 21:51 Clear 43 6.1 38 3.3 82 82 N 3 6 29.94 1014 10 16 0.00 0.00
10:51 pm 22:51 Clear 39 3.9 38 3.3 96 96 Calm 29.96 1015 10 16 0.00 0.00
11:51 pm 23:51 Clear 39 3.9 38 3.3 96 96 ESE 5 7 29.95 1014 10 16 0.00 0.00

Powered by AerisWeather